Weather History for Ostrava, Czech Republic

Change the Weather History Date:

Tuesday, July 2, 2013

  Actual Average (EPKT) Record (EPKT)
Temperature  
Mean Temperature 64 °F -  
Max Temperature 78 °F 74 °F 84 °F (2007)
Min Temperature 50 °F 53 °F 46 °F (2008)
Degree Days  
Heating Degree Days 1    
Growing Degree Days 14 (Base 50)    
Moisture  
Dew Point 52 °F    
Average Humidity 64    
Maximum Humidity 94    
Minimum Humidity 30    
Precipitation  
Precipitation 0.00 in 0.12 in - ()
Sea Level Pressure  
Sea Level Pressure 30.06 in    
Wind  
Wind Speed 6 mph ()    
Max Wind Speed 14 mph    
Max Gust Speed -    
Visibility 14.0 miles    
Events      
Averages and records for this station are not official NWS values.
T = Trace of Precipitation, MM = Missing Value Source: Averaged Metar Reports

Daily Weather History Graph

Daily Weather History Graph

Search for Another Location

Airport:

Trip Planner

Search our weather history database for the weather conditions in past years. The results will help you decide how hot, cold, wet, or windy it might be!

Date:

Astronomy

Jul. 02, 2013 Rise Set
Actual Time 4:44 AM CEST 8:58 PM CEST
Civil Twilight 4:01 AM CEST 9:41 PM CEST
Nautical Twilight 2:58 AM CEST 10:44 PM CEST
Astronomical Twilight 1:23 AM CEST 12:19 AM CEST
Moon 12:56 AM CEST 3:39 PM CEST
Length of Visible Light 17h 40m
Length of Day
16h 13m
Waning Crescent, 29% of the Moon is Illuminated
Jul 2
Waning Crescent
Jul 8
New
Jul 16
First Quarter
Jul 22
Full
Jul 29
Last Quarter

Hourly Weather History & Observations

Time (CEST) Temp. Dew Point Humidity Pressure Visibility Wind Dir Wind Speed Gust Speed Precip Events Conditions
12:00 AM 55.4 °F 51.8 °F 88% 30.09 in - SW 5.8 mph - N/A   Clear
12:30 AM 55.4 °F 50.0 °F 82% 30.09 in - SSW 3.5 mph - N/A   Clear
1:00 AM 57.2 °F 50.0 °F 77% 30.09 in - SSW 4.6 mph - N/A   Clear
1:30 AM 55.4 °F 50.0 °F 82% 30.09 in - SSW 4.6 mph - N/A   Clear
2:00 AM 55 °F 50 °F 78% 30.12 in 12 mi SSW 4.5 mph - -  
2:00 AM 55.4 °F 50.0 °F 82% 30.09 in - SSW 4.6 mph - N/A   Clear
2:30 AM 50.0 °F 48.2 °F 94% 30.09 in - SW 5.8 mph - N/A   Clear
3:00 AM 51.8 °F 48.2 °F 88% 30.09 in - SW 4.6 mph - N/A   Clear
3:30 AM 50.0 °F 48.2 °F 94% 30.09 in - SW 6.9 mph - N/A   Clear
4:00 AM 51.8 °F 48.2 °F 88% 30.09 in - SW 5.8 mph - N/A   Clear
4:30 AM 51.8 °F 48.2 °F 88% 30.09 in - SSW 4.6 mph - N/A   Clear
5:00 AM 51.8 °F 48.2 °F 88% 30.09 in - SSW 6.9 mph - N/A   Clear
5:30 AM 50.0 °F 48.2 °F 94% 30.09 in - SW 5.8 mph - N/A   Clear
6:00 AM 51.8 °F 50.0 °F 94% 30.09 in - SW 5.8 mph - N/A   Clear
6:30 AM 53.6 °F 50.0 °F 88% 30.09 in - SW 4.6 mph - N/A   Clear
7:00 AM 55.4 °F 51.8 °F 88% 30.09 in - SW 4.6 mph - N/A   Clear
7:30 AM 57.2 °F 51.8 °F 82% 30.09 in - SW 3.5 mph - N/A   Clear
7:53 AM 60.8 °F 53.6 °F 77% 30.09 in - WSW 3.5 mph - N/A   Clear
8:00 AM 60 °F 53 °F 70% 30.10 in 16 mi 4.5 mph - -   Clear
8:00 AM 60.8 °F 53.6 °F 77% 30.09 in - WSW 3.5 mph - N/A   Clear
8:30 AM 62.6 °F 53.6 °F 72% 30.09 in - West 3.5 mph - N/A   Clear
8:51 AM 66.2 °F 55.4 °F 68% 30.09 in - West 3.5 mph - N/A   Clear
9:00 AM 66.2 °F 55.4 °F 68% 30.09 in - West 3.5 mph - N/A   Clear
9:30 AM 68.0 °F 55.4 °F 64% 30.09 in - West 3.5 mph - N/A   Clear
10:00 AM 71.6 °F 53.6 °F 53% 30.09 in - WSW 5.8 mph - N/A   Clear
10:30 AM 71.6 °F 50.0 °F 46% 30.09 in - SW 12.7 mph - N/A   Clear
11:00 AM 71.6 °F 50.0 °F 46% 30.09 in - SW 11.5 mph - N/A   Clear
11:30 AM 73.4 °F 48.2 °F 41% 30.06 in - SW 11.5 mph - N/A   Clear
12:00 PM 73.4 °F 48.2 °F 41% 30.06 in - SW 10.4 mph - N/A   Clear
12:30 PM 75.2 °F 50.0 °F 41% 30.06 in - SSW 6.9 mph - N/A   Clear
1:00 PM 75.2 °F 50.0 °F 41% 30.06 in - SW 10.4 mph - N/A   Clear
1:30 PM 75.2 °F 50.0 °F 41% 30.06 in - SW 9.2 mph - N/A   Clear
2:00 PM 76 °F 51 °F 30% 30.02 in 25 mi SW 11.2 mph - -   Scattered Clouds
2:00 PM 77.0 °F 53.6 °F 44% 30.04 in - SW 10.4 mph - N/A   Clear
2:30 PM 77.0 °F 50.0 °F 39% 30.04 in - SSW 10.4 mph - N/A   Clear
3:00 PM 77.0 °F 51.8 °F 41% 30.04 in - SW 11.5 mph - N/A   Clear
3:30 PM 75.2 °F 51.8 °F 44% 30.04 in - SW 9.2 mph - N/A   Clear
4:00 PM 77.0 °F 53.6 °F 44% 30.04 in - WSW 13.8 mph - N/A   Clear
4:30 PM 75.2 °F 55.4 °F 50% 30.01 in - SW 11.5 mph - N/A   Clear
5:00 PM 77.0 °F 55.4 °F 47% 30.01 in - WSW 9.2 mph - N/A   Clear
5:30 PM 77.0 °F 55.4 °F 47% 30.01 in - WSW 10.4 mph - N/A   Clear
6:00 PM 77.0 °F 53.6 °F 44% 30.01 in - WSW 11.5 mph - N/A   Clear
6:30 PM 77.0 °F 55.4 °F 47% 30.01 in - SW 10.4 mph - N/A   Clear
7:00 PM 75.2 °F 55.4 °F 50% 30.01 in - SW 8.1 mph - N/A   Clear
7:30 PM 75.2 °F 57.2 °F 53% 30.01 in - SW 4.6 mph - N/A   Clear
8:00 PM 73 °F 55 °F 43% 29.99 in 25 mi SSW 6.7 mph - -   Scattered Clouds
8:00 PM 71.6 °F 55.4 °F 57% 30.01 in - SSW 6.9 mph - N/A   Clear
8:30 PM 73.4 °F 53.6 °F 50% 30.01 in - South 3.5 mph - N/A   Clear
9:00 PM 71.6 °F 55.4 °F 57% 30.01 in - SE 3.5 mph - N/A   Clear
9:30 PM 69.8 °F 53.6 °F 56% 30.01 in - SSE 4.6 mph - N/A   Clear
10:00 PM 68.0 °F 53.6 °F 60% 30.01 in - SSE 5.8 mph - N/A   Clear
10:30 PM 64.4 °F 53.6 °F 68% 30.01 in - West 3.5 mph - N/A   Clear
11:00 PM 64.4 °F 53.6 °F 68% 30.01 in - SW 4.6 mph - N/A   Clear
11:30 PM 62.6 °F 55.4 °F 77% 30.01 in - WSW 3.5 mph - N/A   Clear